Regional Weather Roundup
Issued by NWS State College, PA

Home | Current Version | Previous Version | Graphics & Text | Print | Product List | Glossary Off
Versions: 1 2 3 4 5 6 7 8 9 10 11 12 13 14 15 16 17 18 19 20 21 22 23 24 25 26 27 28 29 30 31 32 33 34 35 36 37 38 39 40 41 42 43 44 45 46 47 48 49 50

000
ASUS41 KCTP 231910
RWRCTP

REGIONAL WEATHER ROUNDUP
NATIONAL WEATHER SERVICE STATE COLLEGE PA
300 PM EDT TUE SEP 23 2014

Note: "fair" indicates few or no clouds below 12,000 feet with no
significant weather and/or obstructions to visibility.

* = STATION THAT DOES NOT REPORT PRECIPITATION /E.G. RAIN...SNOW...ETC/
    THUNDER OR FOG.

PAZ002>004-007>009-013>016-020>023-029>032-232000-
WESTERN PENNSYLVANIA

CITY           SKY/WX    TMP DP  RH WIND       PRES   REMARKS
ERIE           SUNNY     66  50  56 NW8       30.35S
MEADVILLE      SUNNY     66  46  48 N3        30.36S
FRANKLIN*      SUNNY     64  46  52 SE7       30.37S
NEW CASTLE       N/A     67  46  46 CALM      30.37F
BEAVER COUNTY  SUNNY     66  46  48 S5        30.37S
BUTLER*        SUNNY     64  45  48 SW5       30.38F
PITTSBURGH INT MOSUNNY   65  41  41 CALM      30.36F
PITTSBURGH     SUNNY     66  41  40 E5        30.34F
INDIANA*       SUNNY     64  46  52 VRB5      30.39F
LATROBE        SUNNY     66  46  48 N6        30.36F
WASHINGTON CO* SUNNY     64  45  48 CALM      30.37F
$$

PAZ004>006-010>012-017>019-024>028-033>037-041-042-045-046-049>053-232000-
CENTRAL PENNSYLVANIA

CITY           SKY/WX    TMP DP  RH WIND       PRES   REMARKS
BRADFORD       SUNNY     65  46  50 W6        30.35S
DUBOIS         MOSUNNY   64  47  53 CALM      30.36S
CLEARFIELD     SUNNY     66  46  48 SE6       30.36S
JOHNSTOWN      SUNNY     63  44  50 NW5       30.35F
ALTOONA        SUNNY     66  44  45 VRB3      30.35F
STATE COLLEGE  MOSUNNY   64  46  52 CALM      30.36S
WILLIAMSPORT   SUNNY     68  47  46 CALM      30.33F
SELINSGROVE    SUNNY     70  47  43 VRB5      30.34F
FT INDIANTOWN  SUNNY     69  46  43 VRB2      30.33F
CAPITAL CITY   SUNNY     69  44  40 N6        30.33F
HARRISBURG     MOSUNNY   69  45  41 W6        30.32F
YORK           SUNNY     70  42  36 CALM      30.33F
$$

PAZ038>040-043-044-047-048-054-055-060>062-067>071-232000-
EASTERN PENNSYLVANIA

CITY           SKY/WX    TMP DP  RH WIND       PRES   REMARKS
SCRANTON       SUNNY     68  45  43 W6        30.34S
MOUNT POCONO   SUNNY     66  41  40 SE5       30.33F
ALLENTOWN      SUNNY     70  42  36 SW6       30.32F
QUAKERTOWN*    CLEAR     70  45  40 N6        30.33F
READING        SUNNY     70  43  37 CALM      30.32F
LANCASTER      SUNNY     69  42  37 VRB6      30.33F
COATESVILLE    CLEAR     66  43  42 CALM      30.34S
POTTSTOWN      SUNNY     69  43  38 CALM      30.34S
BLUE BELL      SUNNY     72  43  35 CALM      30.32F
DOYLESTOWN     SUNNY     69  41  36 VRB3      30.32F
WILLOW GROVE   NOT AVBL
NORTH PHILA    SUNNY     71  39  31 VRB3      30.34F
PHILADELPHIA   PTSUNNY   70  42  36 SE6       30.33F
$$


USA.gov is the U.S. government's official web portal to all federal, state and local government web resources and services.